Location: Lewisville
(33.0462°N, 96.9942°W)
Time: 13:12:52
(UTC-05:00)

Hubble Space Telescope - Pass Details

Date: 01 July 2019
Orbit: 536 x 540 km, 28.5° (Epoch: 13 August)

Event Time Altitude Azimuth Distance (km) Brightness Sun altitude
Rises 21:36:44 0° 263° (W) 2,679 5.1 -10.7°
Maximum altitude 21:42:59 41° 186° (S) 780 1.3 -11.8°
Enters shadow 21:45:34 19° 124° (ESE) 1,323 2.1 -12.2°
